| time (UTC) | temp C | wind direction | speed KPH | gust KPH | rain 1hr cm | rain 24hr cm | rain mn cm | humidity % | barometer mb |
| 20260506140232 | 16 | 76 | 4.8 | 12.9 | 0.00 | 1.65 | 1.50 | 82 | 1007.9 |
| 20260506135234 | 15 | 53 | 6.4 | 14.5 | 0.00 | 1.65 | 1.50 | 81 | 1008.0 |
| 20260506133230 | 15 | 69 | 4.8 | 11.3 | 0.00 | 1.65 | 1.50 | 81 | 1008.1 |
| 20260506132230 | 15 | 53 | 4.8 | 14.5 | 0.00 | 1.65 | 1.50 | 85 | 1008.1 |
| 20260506131230 | 15 | 350 | 8.0 | 20.9 | 0.00 | 1.65 | 1.50 | 85 | 1008.1 |
| 20260506130230 | 15 | 36 | 11.3 | 22.5 | 0.00 | 1.65 | 1.50 | 85 | 1008.2 |
| 20260506125230 | 15 | 52 | 6.4 | 16.1 | 0.00 | 1.65 | 1.50 | 85 | 1008.4 |
| 20260506124229 | 14 | 64 | 4.8 | 12.9 | 0.00 | 1.65 | 1.50 | 89 | 1008.6 |
| 20260506123230 | 13 | 15 | 4.8 | 9.7 | 0.03 | 1.65 | 1.50 | 91 | 1008.9 |
| 20260506122228 | 13 | 90 | 3.2 | 9.7 | 0.05 | 1.65 | 1.50 | 92 | 1008.9 |
| 20260506121228 | 13 | 44 | 3.2 | 6.4 | 0.18 | 1.65 | 1.50 | 92 | 1008.9 |
| 20260506120229 | 13 | 12 | 1.6 | 4.8 | 0.28 | 1.65 | 1.50 | 93 | 1008.9 |
| 20260506115232 | 12 | 117 | 3.2 | 6.4 | 0.28 | 1.65 | 1.50 | 93 | 1009.0 |
| 20260506114228 | 12 | 220 | 1.6 | 4.8 | 0.28 | 1.65 | 1.50 | 93 | 1009.1 |
| 20260506113228 | 12 | 264 | 1.6 | 4.8 | 0.28 | 1.63 | 1.47 | 93 | 1009.1 |
| 20260506112229 | 12 | 240 | 4.8 | 8.0 | 0.33 | 1.60 | 1.45 | 93 | 1009.0 |
| 20260506111230 | 13 | 244 | 6.4 | 16.1 | 0.23 | 1.45 | 1.30 | 92 | 1008.9 |
| 20260506110229 | 13 | 257 | 3.2 | 14.5 | 0.15 | 1.37 | 1.22 | 92 | 1008.9 |
| 20260506105228 | 13 | 191 | 1.6 | 3.2 | 0.18 | 1.37 | 1.22 | 92 | 1008.9 |
| 20260506104228 | 13 | 317 | 1.6 | 3.2 | 0.18 | 1.37 | 1.22 | 92 | 1008.8 |
| 20260506103228 | 13 | 295 | 1.6 | 9.7 | 0.15 | 1.35 | 1.19 | 92 | 1008.8 |
| 20260506102228 | 13 | 233 | 6.4 | 14.5 | 0.08 | 1.27 | 1.12 | 92 | 1009.0 |
| 20260506100235 | 14 | 291 | 1.6 | 6.4 | 0.03 | 1.22 | 1.07 | 88 | 1008.5 |
| 20260506094227 | 14 | 81 | 4.8 | 9.7 | 0.00 | 1.24 | 1.04 | 87 | 1008.3 |
| 20260506092225 | 13 | 19 | 3.2 | 6.4 | 0.00 | 1.27 | 1.04 | 89 | 1008.5 |
| 20260506090226 | 13 | 5 | 3.2 | 6.4 | 0.00 | 1.30 | 1.04 | 92 | 1008.9 |
| 20260506085225 | 13 | 45 | 1.6 | 4.8 | 0.00 | 1.30 | 1.04 | 90 | 1008.8 |
| 20260506084224 | 13 | 102 | 4.8 | 9.7 | 0.05 | 1.30 | 1.04 | 89 | 1008.7 |
| 20260506083223 | 13 | 96 | 4.8 | 11.3 | 0.08 | 1.30 | 1.04 | 91 | 1008.7 |
| 20260506082224 | 13 | 86 | 4.8 | 12.9 | 0.13 | 1.30 | 1.04 | 92 | 1008.9 |
| 20260506081223 | 13 | 31 | 3.2 | 8.0 | 0.15 | 1.30 | 1.04 | 93 | 1008.9 |
| 20260506080223 | 12 | 9 | 4.8 | 8.0 | 0.20 | 1.30 | 1.04 | 93 | 1008.8 |
| 20260506073220 | 12 | 88 | 6.4 | 12.9 | 0.25 | 1.22 | 0.97 | 94 | 1009.1 |
| 20260506072220 | 12 | 94 | 4.8 | 11.3 | 0.30 | 1.17 | 0.91 | 94 | 1009.3 |
| 20260506071220 | 12 | 57 | 4.8 | 11.3 | 0.36 | 1.17 | 0.89 | 95 | 1009.4 |
| 20260506070219 | 12 | 68 | 3.2 | 6.4 | 0.36 | 1.09 | 0.84 | 95 | 1009.3 |
| 20260506062217 | 12 | 148 | 1.6 | 4.8 | 0.20 | 0.86 | 0.61 | 95 | 1009.6 |
| 20260506061218 | 12 | 128 | 1.6 | 3.2 | 0.20 | 0.79 | 0.51 | 95 | 1009.6 |
| 20260506060217 | 12 | 18 | 1.6 | 4.8 | 0.18 | 0.74 | 0.48 | 95 | 1009.6 |
| 20260506051214 | 12 | 63 | 3.2 | 9.7 | 0.15 | 0.61 | 0.33 | 96 | 1009.4 |
| 20260506050212 | 12 | 138 | 3.2 | 4.8 | 0.10 | 0.56 | 0.30 | 96 | 1009.6 |
| 20260506044211 | 12 | 274 | 0.0 | 1.6 | 0.03 | 0.48 | 0.23 | 95 | 1009.5 |
| 20260506042212 | 12 | 259 | 1.6 | 6.4 | 0.00 | 0.46 | 0.20 | 95 | 1009.1 |
| 20260506041213 | 12 | 134 | 4.8 | 11.3 | 0.00 | 0.46 | 0.20 | 95 | 1008.9 |
| 20260506040211 | 12 | 124 | 4.8 | 9.7 | 0.00 | 0.46 | 0.20 | 95 | 1008.8 |
| 20260506035213 | 12 | 110 | 4.8 | 11.3 | 0.00 | 0.46 | 0.20 | 96 | 1008.8 |
| 20260506034212 | 12 | 111 | 3.2 | 8.0 | 0.00 | 0.46 | 0.20 | 96 | 1008.7 |
| 20260506033211 | 12 | 109 | 3.2 | 6.4 | 0.00 | 0.46 | 0.20 | 96 | 1008.9 |
| 20260506032212 | 12 | 132 | 1.6 | 3.2 | 0.00 | 0.46 | 0.20 | 96 | 1009.4 |
| 20260506030210 | 12 | 140 | 1.6 | 4.8 | 0.00 | 0.46 | 0.20 | 96 | 1009.7 |
| 20260506025210 | 12 | 148 | 1.6 | 6.4 | 0.00 | 0.46 | 0.20 | 96 | 1009.7 |
| 20260506022209 | 12 | 175 | 0.0 | 0.0 | 0.00 | 0.46 | 0.20 | 96 | 1010.2 |
| 20260506021210 | 12 | 175 | 0.0 | 0.0 | 0.00 | 0.46 | 0.20 | 96 | 1010.2 |
| 20260506020209 | 12 | 175 | 0.0 | 1.6 | 0.00 | 0.46 | 0.20 | 96 | 1010.3 |
| 20260506015222 | 12 | 175 | 3.2 | 8.0 | 0.00 | 0.46 | 0.20 | 96 | 1010.0 |
| 20260506014214 | 12 | 171 | 1.6 | 8.0 | 0.00 | 0.46 | 0.20 | 96 | 1009.9 |
| 20260506013217 | 12 | 139 | 0.0 | 3.2 | 0.00 | 0.46 | 0.20 | 96 | 1009.8 |
| 20260506012213 | 12 | 169 | 0.0 | 0.0 | 0.00 | 0.46 | 0.20 | 96 | 1009.9 |
| 20260506011217 | 12 | 187 | 0.0 | 0.0 | 0.00 | 0.46 | 0.20 | 96 | 1010.2 |
| 20260506010217 | 12 | 187 | 0.0 | 0.0 | 0.00 | 0.46 | 0.20 | 96 | 1010.3 |
| 20260506005217 | 12 | 187 | 0.0 | 0.0 | 0.00 | 0.46 | 0.20 | 96 | 1010.4 |
| 20260506004215 | 12 | 187 | 0.0 | 0.0 | 0.00 | 0.46 | 0.20 | 96 | 1010.5 |
| 20260506003210 | 12 | 187 | 0.0 | 0.0 | 0.03 | 0.46 | 0.20 | 96 | 1010.6 |
| 20260506001216 | 12 | 187 | 1.6 | 4.8 | 0.08 | 0.46 | 0.20 | 96 | 1010.7 |
| 20260505235216 | 12 | 273 | 1.6 | 3.2 | 0.10 | 0.46 | 0.20 | 96 | 1010.8 |
| 20260505234212 | 12 | 222 | 0.0 | 0.0 | 0.15 | 0.46 | 0.18 | 96 | 1010.9 |
| 20260505233212 | 12 | 222 | 1.6 | 3.2 | 0.18 | 0.43 | 0.18 | 96 | 1010.9 |
| 20260505232210 | 12 | 236 | 0.0 | 0.0 | 0.15 | 0.43 | 0.15 | 96 | 1011.0 |
| 20260505231214 | 12 | 236 | 0.0 | 3.2 | 0.13 | 0.38 | 0.13 | 96 | 1011.2 |
| 20260505230208 | 12 | 236 | 0.0 | 3.2 | 0.13 | 0.38 | 0.13 | 95 | 1011.0 |
| 20260505225214 | 12 | 236 | 1.6 | 6.4 | 0.10 | 0.36 | 0.08 | 95 | 1011.0 |
| 20260505224209 | 12 | 237 | 4.8 | 9.7 | 0.05 | 0.33 | 0.05 | 95 | 1011.1 |
| 20260505223204 | 12 | 283 | 3.2 | 6.4 | 0.00 | 0.25 | 0.00 | 94 | 1011.2 |
| 20260505222205 | 12 | 171 | 1.6 | 6.4 | 0.00 | 0.25 | 0.00 | 94 | 1011.1 |
| 20260505221212 | 13 | 154 | 0.0 | 1.6 | 0.00 | 0.25 | 0.00 | 94 | 1011.1 |
| 20260505220223 | 13 | 154 | 0.0 | 3.2 | 0.00 | 0.25 | 0.00 | 94 | 1011.1 |
| 20260505215204 | 12 | 154 | 1.6 | 3.2 | 0.00 | 0.25 | 0.25 | 94 | 1011.2 |
| 20260505214208 | 13 | 154 | 1.6 | 4.8 | 0.00 | 0.25 | 0.25 | 94 | 1011.4 |
| 20260505213209 | 13 | 107 | 0.0 | 1.6 | 0.00 | 0.25 | 0.25 | 94 | 1011.5 |
| 20260505212159 | 13 | 107 | 3.2 | 6.4 | 0.00 | 0.25 | 0.25 | 93 | 1011.6 |
| 20260505211205 | 13 | 95 | 4.8 | 11.3 | 0.00 | 0.25 | 0.25 | 93 | 1011.7 |
| 20260505210212 | 13 | 92 | 3.2 | 6.4 | 0.00 | 0.25 | 0.25 | 94 | 1011.8 |
| 20260505205206 | 13 | 100 | 0.0 | 4.8 | 0.00 | 0.25 | 0.25 | 94 | 1011.8 |
| 20260505204212 | 13 | 100 | 0.0 | 0.0 | 0.00 | 0.25 | 0.25 | 94 | 1011.9 |
| 20260505203212 | 13 | 100 | 0.0 | 0.0 | 0.00 | 0.25 | 0.25 | 95 | 1011.8 |
| 20260505201214 | 13 | 159 | 1.6 | 6.4 | 0.00 | 0.25 | 0.25 | 95 | 1012.0 |
| 20260505200206 | 13 | 159 | 1.6 | 4.8 | 0.00 | 0.25 | 0.25 | 95 | 1011.9 |
| 20260505195208 | 13 | 166 | 3.2 | 6.4 | 0.00 | 0.25 | 0.25 | 95 | 1011.8 |
| 20260505194159 | 13 | 294 | 1.6 | 3.2 | 0.00 | 0.25 | 0.25 | 94 | 1011.8 |
| 20260505193159 | 13 | 294 | 0.0 | 3.2 | 0.00 | 0.25 | 0.25 | 95 | 1011.7 |
| 20260505191211 | 13 | 274 | 0.0 | 0.0 | 0.00 | 0.25 | 0.25 | 94 | 1011.7 |
| 20260505190213 | 13 | 274 | 0.0 | 0.0 | 0.00 | 0.25 | 0.25 | 94 | 1011.7 |
| 20260505184159 | 13 | 274 | 0.0 | 0.0 | 0.00 | 0.25 | 0.25 | 93 | 1011.6 |
| 20260505183159 | 13 | 274 | 0.0 | 0.0 | 0.00 | 0.25 | 0.25 | 93 | 1011.5 |
| 20260505182212 | 13 | 274 | 0.0 | 0.0 | 0.00 | 0.25 | 0.25 | 92 | 1011.5 |
| 20260505181207 | 13 | 274 | 0.0 | 3.2 | 0.00 | 0.25 | 0.25 | 92 | 1011.4 |
| 20260505180157 | 13 | 274 | 0.0 | 1.6 | 0.03 | 0.25 | 0.25 | 92 | 1011.3 |
| 20260505174211 | 13 | 271 | 0.0 | 3.2 | 0.03 | 0.23 | 0.25 | 92 | 1011.3 |
| 20260505173155 | 13 | 252 | 3.2 | 4.8 | 0.05 | 0.23 | 0.25 | 93 | 1011.3 |
| 20260505172155 | 13 | 268 | 1.6 | 4.8 | 0.05 | 0.23 | 0.25 | 93 | 1011.3 |
| 20260505171202 | 13 | 254 | 1.6 | 4.8 | 0.08 | 0.23 | 0.25 | 93 | 1011.4 |
| 20260505170159 | 13 | 288 | 1.6 | 3.2 | 0.08 | 0.23 | 0.23 | 93 | 1011.3 |
| 20260505165208 | 13 | 303 | 1.6 | 4.8 | 0.10 | 0.15 | 0.23 | 93 | 1011.3 |
| 20260505164203 | 13 | 304 | 3.2 | 8.0 | 0.13 | 0.15 | 0.23 | 93 | 1011.3 |
| 20260505162209 | 13 | 269 | 3.2 | 11.3 | 0.08 | 0.15 | 0.20 | 93 | 1011.6 |
| 20260505160155 | 13 | 236 | 6.4 | 14.5 | 0.05 | 0.15 | 0.15 | 92 | 1011.6 |
| 20260505153157 | 14 | 263 | 9.7 | 16.1 | 0.00 | 0.13 | 0.13 | 89 | 1011.6 |
| 20260505152211 | 14 | 271 | 8.0 | 16.1 | 0.00 | 0.13 | 0.13 | 88 | 1011.7 |
| 20260505150201 | 14 | 263 | 6.4 | 14.5 | 0.00 | 0.13 | 0.13 | 87 | 1011.6 |